N375R -KSAN

Flight info

Callsign N375R
Flight time N/A
Altitude VFR
Route
Aircraft E300/L-VGD/C

Departure

Time N/A
Airport -

Arrival

Time 2026-04-22 04:36
Airport San Diego International Airport (KSAN)
Time Latitude Longitude Altitude Speed Heading
2026-04-22 04:36 32.73371 -117.17949 15 ft 0 kts 178°
2026-04-22 04:37 32.73289 -117.17971 16 ft 30 kts 186°
2026-04-22 04:37 32.73206 -117.17870 14 ft 30 kts 106°
2026-04-22 04:38 32.73150 -117.17633 15 ft 28 kts 107°
2026-04-22 04:38 32.73094 -117.17547 14 ft 5 kts 155°
2026-04-22 04:38 32.73026 -117.17576 15 ft 14 kts 268°
2026-04-22 04:38 32.73030 -117.17617 14 ft 0 kts 289°
2026-04-22 04:39 32.73046 -117.17681 13 ft 45 kts 289°
2026-04-22 04:39 32.73190 -117.18306 337 ft 103 kts 290°
2026-04-22 04:39 32.73439 -117.19315 421 ft 141 kts 281°
2026-04-22 04:40 32.73656 -117.20457 964 ft 144 kts 287°
2026-04-22 04:40 32.74102 -117.21529 1178 ft 147 kts 319°
2026-04-22 04:40 32.75056 -117.21686 1236 ft 146 kts 23°
2026-04-22 04:40 32.75509 -117.20716 1261 ft 143 kts 94°
2026-04-22 04:41 32.75303 -117.19545 1209 ft 142 kts 101°
2026-04-22 04:41 32.75056 -117.18408 1245 ft 139 kts 100°
2026-04-22 04:41 32.74903 -117.17333 1256 ft 131 kts 97°
2026-04-22 04:41 32.74725 -117.16258 1119 ft 135 kts 115°
2026-04-22 04:42 32.74003 -117.15676 1054 ft 127 kts 178°
2026-04-22 04:42 32.73255 -117.16111 869 ft 127 kts 234°
2026-04-22 04:42 32.73013 -117.17112 1287 ft 145 kts 270°
2026-04-22 04:42 32.73211 -117.18333 1549 ft 145 kts 285°
2026-04-22 04:43 32.73594 -117.19123 1449 ft 109 kts
2026-04-22 04:43 32.73894 -117.18389 725 ft 133 kts 125°
2026-04-22 04:43 32.73251 -117.18360 279 ft 95 kts 283°
2026-04-22 04:43 32.73446 -117.19330 73 ft 134 kts 288°
2026-04-22 04:44 32.73652 -117.20220 1215 ft 69 kts 285°
2026-04-22 04:44 32.73850 -117.20946 1203 ft 114 kts 311°
2026-04-22 04:44 32.74636 -117.21023 1228 ft 134 kts 36°
2026-04-22 04:44 32.74793 -117.20023 1273 ft 134 kts 108°
2026-04-22 04:45 32.74541 -117.18992 1303 ft 125 kts 105°
2026-04-22 04:45 32.74357 -117.17997 1324 ft 127 kts 99°
2026-04-22 04:45 32.74223 -117.16963 1290 ft 125 kts 98°
2026-04-22 04:45 32.74087 -117.16001 1234 ft 103 kts 97°
2026-04-22 04:46 32.74033 -117.15160 1148 ft 106 kts 91°
2026-04-22 04:46 32.74035 -117.14263 1219 ft 109 kts 86°
2026-04-22 04:46 32.74072 -117.13347 1278 ft 114 kts 91°
2026-04-22 04:46 32.73968 -117.12398 1311 ft 126 kts 102°
2026-04-22 04:47 32.73426 -117.11385 1424 ft 162 kts 140°
2026-04-22 04:47 32.72463 -117.10859 1422 ft 132 kts 173°
2026-04-22 04:47 32.71637 -117.11069 1406 ft 124 kts 231°
2026-04-22 04:47 32.71611 -117.11913 1244 ft 99 kts 285°
2026-04-22 04:48 32.71784 -117.12635 1242 ft 95 kts 285°
2026-04-22 04:48 32.71980 -117.13429 1226 ft 101 kts 288°
2026-04-22 04:48 32.72185 -117.14239 1196 ft 102 kts 287°
2026-04-22 04:48 32.72424 -117.15038 888 ft 112 kts 283°
2026-04-22 04:49 32.72645 -117.15925 570 ft 112 kts 283°
2026-04-22 04:49 32.72825 -117.16762 339 ft 115 kts 285°
2026-04-22 04:49 32.73090 -117.17874 522 ft 138 kts 288°
2026-04-22 04:49 32.73377 -117.19040 826 ft 157 kts 286°
2026-04-22 04:50 32.73672 -117.20322 957 ft 164 kts 285°
2026-04-22 04:50 32.74329 -117.21244 1288 ft 136 kts 342°
2026-04-22 04:50 32.75091 -117.20857 1248 ft 130 kts 63°
2026-04-22 04:50 32.75053 -117.19818 1296 ft 126 kts 100°
2026-04-22 04:51 32.74960 -117.18794 1362 ft 127 kts 93°
2026-04-22 04:51 32.74867 -117.17742 1328 ft 127 kts 97°
2026-04-22 04:51 32.74706 -117.16718 1342 ft 125 kts 99°
2026-04-22 04:51 32.74669 -117.15735 1294 ft 109 kts 91°
2026-04-22 04:52 32.74597 -117.14881 1179 ft 100 kts 100°
2026-04-22 04:52 32.74479 -117.14102 1141 ft 94 kts 96°
2026-04-22 04:52 32.74169 -117.13554 1110 ft 97 kts 179°
2026-04-22 04:52 32.73559 -117.14198 1280 ft 141 kts 231°
2026-04-22 04:53 32.73060 -117.15035 1076 ft 115 kts 244°
2026-04-22 04:53 32.72843 -117.15890 751 ft 105 kts 269°
2026-04-22 04:53 32.72879 -117.16726 426 ft 100 kts 280°
2026-04-22 04:53 32.73015 -117.17526 144 ft 94 kts 284°
2026-04-22 04:54 32.73173 -117.18215 21 ft 77 kts 288°
2026-04-22 04:54 32.73309 -117.18804 93 ft 90 kts 286°
2026-04-22 04:54 32.73503 -117.19684 541 ft 128 kts 286°
2026-04-22 04:54 32.73750 -117.20712 1123 ft 129 kts 300°
2026-04-22 04:55 32.74511 -117.21162 1258 ft 133 kts
2026-04-22 04:55 32.75205 -117.20496 1324 ft 137 kts 72°
2026-04-22 04:55 32.75155 -117.19364 1408 ft 134 kts 98°
2026-04-22 04:55 32.75011 -117.18269 1433 ft 135 kts 99°
2026-04-22 04:56 32.74857 -117.17169 1402 ft 134 kts 99°
2026-04-22 04:56 32.74701 -117.16088 1407 ft 131 kts 101°
2026-04-22 04:56 32.74494 -117.15022 1346 ft 134 kts 116°
2026-04-22 04:56 32.73946 -117.14119 1239 ft 135 kts 131°
2026-04-22 04:57 32.73181 -117.13514 1089 ft 140 kts 166°
2026-04-22 04:57 32.72127 -117.13614 1174 ft 155 kts 240°
2026-04-22 04:57 32.72186 -117.14446 1056 ft 100 kts 338°
2026-04-22 04:57 32.72450 -117.15062 725 ft 106 kts 257°
2026-04-22 04:58 32.72524 -117.15765 564 ft 88 kts 266°
2026-04-22 04:58 32.72646 -117.16421 534 ft 84 kts 317°
2026-04-22 04:58 32.72892 -117.16745 496 ft 90 kts 224°
2026-04-22 04:58 32.72970 -117.17185 440 ft 90 kts 187°
2026-04-22 04:59 32.73126 -117.17428 406 ft 101 kts 337°
2026-04-22 04:59 32.73164 -117.18123 59 ft 88 kts 285°
2026-04-22 04:59 32.73295 -117.18706 38 ft 57 kts 288°
2026-04-22 04:59 32.73432 -117.19267 87 ft 113 kts 287°
2026-04-22 05:00 32.73704 -117.20393 77 ft 158 kts 287°
2026-04-22 05:00 32.74241 -117.21169 1199 ft 126 kts 341°
2026-04-22 05:00 32.75007 -117.20872 1254 ft 124 kts 55°
2026-04-22 05:00 32.75003 -117.19895 1326 ft 125 kts 106°
2026-04-22 05:01 32.74789 -117.18892 1371 ft 126 kts 104°
2026-04-22 05:01 32.74573 -117.17892 1449 ft 124 kts 104°
2026-04-22 05:01 32.74355 -117.16901 1448 ft 127 kts 103°
2026-04-22 05:01 32.74108 -117.15904 1350 ft 128 kts 121°
2026-04-22 05:02 32.73335 -117.15712 1233 ft 125 kts 216°
2026-04-22 05:02 32.72928 -117.16618 469 ft 132 kts 266°
2026-04-22 05:02 32.73074 -117.17751 218 ft 148 kts 286°
2026-04-22 05:02 32.73307 -117.18812 1141 ft 135 kts 286°
2026-04-22 05:03 32.73722 -117.19906 1453 ft 152 kts 317°
2026-04-22 05:03 32.74559 -117.20690 1912 ft 148 kts 322°
2026-04-22 05:03 32.75332 -117.21428 2456 ft 147 kts 321°
2026-04-22 05:03 32.76120 -117.22196 2871 ft 140 kts 320°
2026-04-22 05:04 32.76813 -117.22917 3094 ft 126 kts 318°
2026-04-22 05:04 32.77506 -117.23568 3137 ft 130 kts 320°